[Iaude] MPEC B150: 2024 BA3 [a=0.96,e=0.11,i=8.7,H=28.8]

mpec at marsden.cfa.harvard.edu mpec at marsden.cfa.harvard.edu
Mon Jan 29 08:48:52 EST 2024


M.P.E.C. 2024-B150                             Issued 2024 January 29, 13:46 UT

     The Minor Planet Electronic Circulars contain information on unusual
         minor planets, routine data on comets and natural satellites,
         and occasional editorial announcements.  They are published
    on behalf of Division F of the International Astronomical Union by the
          Minor Planet Center, Smithsonian Astrophysical Observatory,
                          Cambridge, MA 02138, U.S.A.
			  
             Prepared using the Tamkin Foundation Computer Network

                              MPC at CFA.HARVARD.EDU
            URL https://www.minorplanetcenter.net/    ISSN 1523-6714

                                    2024 BA3                                    


Observations:
     K24B03A* C2024 01 28.93121 07 46 51.01 +49 13 14.8          18.5 GVEB150K88
     K24B03A  C2024 01 28.93309 07 46 40.14 +49 11 55.7          19.0 GVEB150K88
     K24B03A KC2024 01 28.94479 07 45 31.96 +49 03 46.9          18.1 GVEB150K88
     K24B03A KC2024 01 28.94635 07 45 22.94 +49 02 40.9          18.4 GVEB150K88
     K24B03A KC2024 01 28.96878807 43 11.98 +48 46 30.0          18.7 RoEB150K88
     K24B03A KC2024 01 28.97433607 42 39.63 +48 42 23.2          18.7 RoEB150K88
     K24B03A KC2024 01 28.97903607 42 12.07 +48 38 52.5          18.8 RoEB150K88
     K24B03A KC2024 01 28.98181207 41 55.89 +48 36 47.0          18.7 RoEB150K88
     K24B03A KC2024 01 28.98459307 41 39.59 +48 34 41.2          19.2 RoEB150K88
     K24B03A KB2024 01 29.01650807 39 01.03 +48 13 30.9          18.6 GXEB150958
     K24B03A KC2024 01 29.02049807 38 09.74 +48 06 37.1          18.6 RoEB150K88
     K24B03A KB2024 01 29.02131707 38 32.16 +48 09 46.1          18.5 GXEB150958
     K24B03A KC2024 01 29.02383007 37 50.31 +48 03 55.9          18.9 RoEB150K88
     K24B03A KB2024 01 29.02614607 38 03.36 +48 05 58.7          18.9 GXEB150958
     K24B03A KC2024 01 29.02716707 37 30.80 +48 01 13.7          18.7 RoEB150K88
     K24B03A KC2024 01 29.02789407 37 31.60 +48 02 23.9          19.3 GVEB150L01
     K24B03A IC2024 01 29.02887507 37 25.80 +48 01 35.9          19.4 GVEB150L01
     K24B03A IC2024 01 29.02965907 37 21.11 +48 00 57.5          19.1 GVEB150L01
     K24B03A KC2024 01 29.03044307 37 16.55 +48 00 20.0          19.1 GVEB150L01
     K24B03A KC2024 01 29.03122707 37 11.95 +47 59 41.8          18.9 GVEB150L01
     K24B03A KC2024 01 29.03201007 37 07.33 +47 59 03.4          18.9 GVEB150L01
     K24B03A KC2024 01 29.03279107 37 02.70 +47 58 25.3          18.8 GVEB150L01
     K24B03A KC2024 01 29.03682407 36 39.02 +47 55 06.6          18.7 GVEB150L01
     K24B03A KC2024 01 29.03845807 36 29.32 +47 53 46.4          18.8 GVEB150L01
     K24B03A KC2024 01 29.08395907 32 02.21 +47 12 59.1          19.0 RoEB150K88
     K24B03A KC2024 01 29.08618507 31 49.40 +47 11 01.1          19.1 RoEB150K88
     K24B03A KB2024 01 29.22990 07 19 46.238+45 14 55.28         19.0 GXEB150H36
     K24B03A KB2024 01 29.23233 07 19 30.588+45 12 33.91         18.7 GXEB150H36
     K24B03A KB2024 01 29.23477 07 19 14.906+45 10 11.64         18.8 GXEB150H36
     K24B03A KB2024 01 29.49509 06 54 44.81 +40 20 14.5          18.9 rZEB150Q06
     K24B03A KB2024 01 29.49637 06 54 36.17 +40 18 37.9          18.5 rZEB150Q06
     K24B03A KB2024 01 29.49860 06 54 21.00 +40 15 51.6          19.2 rZEB150Q06
     K24B03A KB2024 01 29.49990 06 54 12.20 +40 14 13.8          18.5 rZEB150Q06
     K24B03A KB2024 01 29.50118 06 54 03.37 +40 12 37.5          18.5 rZEB150Q06

Observer details:
958 Observatoire de Dax.  Observer P. Dupouy.  0.50-m f/4.5 Reflector + CMO.
H36 Sandlot Observatory, Scranton.  Observer G. Hug.  0.56-m f/4.8 reflector +
    CMO.
K88 GINOP-KHK, Piszkesteto.  Observer K. Sarneczky.  0.60-m Schmidt + CCD.
L01 Visnjan Observatory, Tican.  Observer K. Korlevic.  1.0-m f/2.9 reflector
    + CCD.
Q06 Tarui Observatory, Tarui.  Observer H. Watanabe.  0.35-m f/1.9 Schmidt-
    Cassegrain + CMO.

Orbital elements:
2024 BA3                                                 Earth MOID = 0.0015 AU
Epoch 2023 Sept. 13.0 TT = JDT 2460200.5                Veres                   
M 114.45864              (2000.0)            P               Q                  
n   1.04820121     Peri.  291.69609     -0.47745249     +0.87079375             
a   0.9597828      Node   309.24210     -0.73977320     -0.47041476             
e   0.1097605      Incl.    8.71073     -0.47410414     -0.14292726             
P   0.94           H   28.87          G   0.15           U   6                  
Residuals in seconds of arc
240128 K88  0.9-  0.1-    240129 K88  0.2+  0.0     240129 K88  0.1+  0.1-
240128 K88  0.4-  1.5-    240129 958  0.8+  0.1+    240129 K88  0.5-  0.1+
240128 K88  1.4-  0.7-    240129 K88  0.4-  0.2+    240129 H36  0.3-  0.2+
240128 K88  0.8-  0.6-    240129 L01  0.3+  0.1-    240129 H36  0.2-  0.1-
240128 K88  0.4-  0.2+    240129 L01  0.2+  0.3-    240129 H36  0.4+  0.0
240128 K88  0.5+  0.0     240129 L01  0.5-  0.6-    240129 Q06  0.2-  0.2-
240128 K88  0.2-  0.1+    240129 L01  0.1+  0.2+    240129 Q06  0.4+  1.0-
240128 K88  0.3+  0.1-    240129 L01  0.3+  0.2+    240129 Q06  0.2+  0.2+
240128 K88  0.0   0.2+    240129 L01  0.2+  0.1+    240129 Q06  0.7+  0.3+
240129 958  0.0   0.0     240129 L01  0.1-  0.3+    240129 Q06  0.7-  0.6+
240129 K88  0.1+  0.2-    240129 L01  0.6+  0.2-
240129 958  0.6-  0.1-    240129 L01  0.2-  0.2+

Ephemeris:
2024 BA3                 a,e,i = 0.96, 0.11, 9                   q = 0.8544
Date    TT    R. A. (2000) Decl.     Delta      r    Elong.  Phase     V
2023 12 30    11 26 37.0 +57 10 50   0.1033  1.0363   118.3    56.6    26.1
...
2024 01 14    11 32 16.9 +58 13 23   0.05424 1.0154   124.7    52.8    24.5
...
2024 01 22    11 06 49.6 +59 03 28   0.02815 1.0024   130.1    48.7    22.9
...
2024 01 28    08 54 30.7 +55 38 53   0.0091170.9920   142.7    37.0    20.1
2024 01 29    07 41 03.8 +48 25 00   0.0063310.9902   147.3    32.5    19.2
2024 01 30    06 01 56.2 +26 30 44   0.0043170.9883   141.1    38.7    18.6
...
2024 02 05    01 18 28.8 -53 29 51   0.01852 0.9768    60.4   118.7    24.9
...
2024 02 13    00 28 06.8 -56 26 37   0.04435 0.9612    53.1   124.8    27.3
...
2024 02 28    23 55 08.0 -55 22 49   0.09343 0.9321    49.3   126.4    28.9

M. P. C. Staff               (C) Copyright 2024 MPC           M.P.E.C. 2024-B150





More information about the Iaude mailing list